Location: Fluertsh�userhof
(48.7537°N, 10.3850°E)
Time: 04:34:06
(UTC+00:00)

NOSS 2-2 (D) - Pass Details

Date: 18 September 2020
Orbit: 469 x 1739 km, 63.3° (Epoch: 23 October)

Event Time Altitude Azimuth Distance (km) Brightness Sun altitude
Rises 19:20:49 0° 228° (SW) 2,501 7.0 -19.4°
Reaches altitude 10° 19:22:51 10° 232° (SW) 1,633 6.0 -19.7°
Maximum altitude 19:26:21 65° 315° (NW) 556 3.5 -20.2°
Drops below altitude 10° 19:30:22 10° 38° (NE) 1,878 5.9 -20.8°
Enters shadow 19:32:21 - 41° (NE) 2,714 6.7 -21.0°
